Location: *
(50.0228°S, 177.2688°W)
Time: 16:31:15
(UTC+00:00)

Cosmos 1709 Rocket - Pass Details

Date: 07 April 2020
Orbit: 948 x 1002 km, 82.9° (Epoch: 01 June)

Event Time Altitude Azimuth Distance (km) Brightness Sun altitude
Rises 06:49:00 0° 14° (NNE) 3,624 6.8 -14.7°
Reaches altitude 10° 06:51:34 10° 20° (NNE) 2,691 6.0 -15.1°
Maximum altitude 06:57:22 45° 90° (E) 1,300 4.2 -16.0°
Drops below altitude 10° 07:03:18 10° 160° (SSE) 2,751 6.3 -16.9°
Sets 07:05:56 0° 166° (SSE) 3,713 7.0 -17.4°
